Grand Canyon, AZ

8:02 AM MST on February 06, 2016 (GMT -0700)
Grand Canyon National Park

Weather History for KGCN - November, 2012

Change the Weather History Date:

Thursday, November 29, 2012

  Actual Average Record
Temperature  
Mean Temperature 36 °F -  
Max Temperature 55 °F 45 °F 62 °F (1999)
Min Temperature 18 °F 15 °F -2 °F (2004)
Degree Days  
Heating Degree Days 28    
Moisture  
Dew Point 22 °F    
Average Humidity 61    
Maximum Humidity 82    
Minimum Humidity 36    
Precipitation  
Precipitation 0.00 in - - ()
Sea Level Pressure  
Sea Level Pressure 30.20 in    
Wind  
Wind Speed 3 mph (SW)    
Max Wind Speed 15 mph    
Max Gust Speed 22 mph    
Visibility 10 miles    
Events      
Averages and records for this station are not official NWS values.
T = Trace of Precipitation, MM = Missing Value Source: NWS Daily Summary

Daily Weather History Graph

Daily Weather History Graph

Search for Another Location

Airport or City:

Trip Planner

Search our weather history database for the weather conditions in past years. The results will help you decide how hot, cold, wet, or windy it might be!

Date:

Astronomy

Nov. 29, 2012 Rise Set
Actual Time 7:19 AM MST 5:14 PM MST
Civil Twilight 6:51 AM MST 5:42 PM MST
Nautical Twilight 6:19 AM MST 6:14 PM MST
Astronomical Twilight 5:48 AM MST 6:45 PM MST
Moon 6:21 PM MST (11/29) 8:08 AM MST (11/29)
Length of Visible Light 10h 51m
Length of Day
9h 55m
Full, 99% of the Moon is Illuminated
Nov 29
Full
Dec 6
Last Quarter
Dec 13
New
Dec 19
First Quarter
Dec 28
Full

Hourly Weather History & Observations

Time (MST) Temp. Windchill Dew Point Humidity Pressure Visibility Wind Dir Wind Speed Gust Speed Precip Events Conditions
12:54 AM 30.9 °F - 23.0 °F 72% 30.14 in 10.0 mi Calm Calm - N/A   Clear
1:54 AM 25.0 °F - 19.0 °F 78% 30.17 in 10.0 mi Calm Calm - N/A   Clear
2:54 AM 23.0 °F - 17.1 °F 78% 30.18 in 10.0 mi Calm Calm - N/A   Clear
3:54 AM 19.0 °F - 12.9 °F 77% 30.19 in 10.0 mi Calm Calm - N/A   Clear
4:54 AM 21.0 °F - 16.0 °F 81% 30.21 in 10.0 mi Calm Calm - N/A   Partly Cloudy
5:54 AM 19.9 °F - 14.0 °F 78% 30.23 in 10.0 mi Calm Calm - N/A   Clear
6:54 AM 18.0 °F - 12.9 °F 81% 30.28 in 10.0 mi Calm Calm - N/A   Partly Cloudy
7:54 AM 25.0 °F 20.7 °F 18.0 °F 75% 30.29 in 10.0 mi NE 3.5 mph - N/A   Mostly Cloudy
9:54 AM 48.0 °F - 25.0 °F 41% 30.19 in 10.0 mi SW 13.8 mph - N/A   Clear
10:54 AM 51.1 °F - 25.0 °F 36% 30.18 in 10.0 mi WSW 12.7 mph 21.9 mph N/A   Scattered Clouds
11:54 AM 52.0 °F - 27.0 °F 38% 30.15 in 10.0 mi SW 11.5 mph - N/A   Scattered Clouds
12:54 PM 54.0 °F - 28.9 °F 38% 30.16 in 10.0 mi SW 15.0 mph 20.7 mph N/A   Clear
1:54 PM 55.0 °F - 28.9 °F 37% 30.17 in 10.0 mi WSW 12.7 mph 18.4 mph N/A   Clear
2:54 PM 55.0 °F - 30.9 °F 40% 30.16 in 10.0 mi SW 12.7 mph 20.7 mph N/A   Partly Cloudy
3:54 PM 52.0 °F - 28.9 °F 41% 30.18 in 10.0 mi WSW 10.4 mph - N/A   Clear
4:54 PM 50.0 °F - 28.0 °F 43% 30.18 in 10.0 mi SW 5.8 mph - N/A   Clear
5:54 PM 37.0 °F - 21.0 °F 52% 30.25 in 10.0 mi Calm Calm - N/A   Clear
6:54 PM 35.1 °F - 23.0 °F 61% 30.27 in 10.0 mi Calm Calm - N/A   Clear
7:54 PM 30.0 °F - 19.0 °F 64% 30.27 in 10.0 mi Calm Calm - N/A   Clear
8:54 PM 30.0 °F - 19.9 °F 66% 30.23 in 10.0 mi Calm Calm - N/A   Clear
9:54 PM 28.0 °F 24.2 °F 19.9 °F 72% 30.21 in 10.0 mi WSW 3.5 mph - N/A   Clear
10:54 PM 28.0 °F 24.2 °F 21.9 °F 78% 30.18 in 10.0 mi SW 3.5 mph - N/A   Clear
11:54 PM 36.0 °F 32.1 °F 30.9 °F 82% 30.15 in 10.0 mi SW 4.6 mph - N/A   Clear